Location: Melita
(38.4566°N, 122.6369°W)
Time: 21:35:19
(UTC+00:00)

STARLINK-1055 - Pass Details

Date: 24 January 2020
Orbit: 548 x 551 km, 53.1° (Epoch: 18 February)

Event Time Altitude Azimuth Distance (km) Brightness Sun altitude
Rises 14:05:16 0° 214° (SSW) 2,701 6.9 -15.1°
Reaches altitude 10° 14:07:32 10° 208° (SSW) 1,812 6.1 -14.7°
Maximum altitude 14:11:30 49° 134° (SE) 708 4.5 -13.9°
Drops below altitude 10° 14:15:31 10° 58° (ENE) 1,825 6.9 -13.2°
Sets 14:17:48 0° 53° (NE) 2,723 7.8 -12.7°
